Rome, GA

11:55 AM EDT on October 17, 2019 (GMT -0400)
Russell

Weather History for KRMG - September, 2019

Change the Weather History Date:

Wednesday, September 18, 2019

  Actual Average Record
Temperature  
Mean Temperature 78 °F 71 °F  
Max Temperature 91 °F 83 °F 95 °F (2005)
Min Temperature 65 °F 60 °F 48 °F (1999)
Degree Days  
Heating Degree Days 0 0  
Month to date heating degree days 0 0  
Since 1 July heating degree days 0 0  
Cooling Degree Days 14 7  
Month to date cooling degree days 296 164  
Year to date cooling degree days 2055 1530  
Growing Degree Days 28 (Base 50)    
Moisture  
Dew Point 65 °F    
Average Humidity 66    
Maximum Humidity 90    
Minimum Humidity 45    
Precipitation  
Precipitation 0.00 in 0.11 in 1.35 in (2006)
Month to date precipitation T 1.86  
Year to date precipitation 42.45 37.28  
Sea Level Pressure  
Sea Level Pressure 29.99 in    
Wind  
Wind Speed 3 mph ()    
Max Wind Speed 15 mph    
Max Gust Speed 22 mph    
Visibility 9.9 miles    
Events      
T = Trace of Precipitation, MM = Missing Value Source: Averaged Metar Reports

Daily Weather History Graph

Daily Weather History Graph

Search for Another Location

Airport or City:

Astronomy

Sep. 18, 2019 Rise Set
Actual Time 7:25 AM EDT 7:43 PM EDT
Civil Twilight 7:00 AM EDT 8:08 PM EDT
Nautical Twilight 6:31 AM EDT 8:37 PM EDT
Astronomical Twilight 6:01 AM EDT 9:07 PM EDT
Moon 10:27 PM EDT (9/18) 11:18 AM EDT (9/18)
Length of Visible Light 13h 07m
Length of Day
12h 17m
Waning Gibbous, 82% of the Moon is Illuminated
Sep 18
Waning Gibbous
Sep 21
Last Quarter
Sep 28
New
Oct 5
First Quarter
Oct 13
Full

Hourly Weather History & Observations

Time (EDT) Temp. Heat Index Dew Point Humidity Pressure Visibility Wind Dir Wind Speed Gust Speed Precip Events Conditions
12:53 AM 73.0 °F - 66.0 °F 79% 29.95 in 10.0 mi Calm Calm - N/A   Clear
1:53 AM 72.0 °F - 64.9 °F 78% 29.94 in 10.0 mi Calm Calm - N/A   Clear
2:53 AM 71.1 °F - 64.9 °F 81% 29.94 in 10.0 mi Calm Calm - N/A   Clear
3:53 AM 69.1 °F - 64.0 °F 84% 29.94 in 10.0 mi Calm Calm - N/A   Clear
4:53 AM 66.9 °F - 63.0 °F 87% 29.94 in 10.0 mi Calm Calm - N/A   Clear
5:53 AM 66.0 °F - 63.0 °F 90% 29.96 in 10.0 mi Calm Calm - N/A   Clear
6:53 AM 66.0 °F - 62.1 °F 87% 29.97 in 10.0 mi Calm Calm - N/A   Clear
7:53 AM 66.0 °F - 63.0 °F 90% 29.99 in 8.0 mi Calm Calm - N/A   Clear
8:53 AM 72.0 °F - 64.0 °F 76% 30.01 in 10.0 mi Calm Calm - N/A   Clear
9:53 AM 81.0 °F 83.3 °F 66.9 °F 62% 30.01 in 10.0 mi NNE 3.5 mph - N/A   Clear
10:53 AM 84.0 °F 86.3 °F 66.0 °F 55% 30.01 in 10.0 mi East 6.9 mph - N/A   Clear
11:53 AM 87.1 °F 89.9 °F 66.9 °F 51% 30.01 in 10.0 mi ESE 10.4 mph - N/A   Clear
12:53 PM 89.1 °F 91.3 °F 66.0 °F 46% 30.01 in 10.0 mi SE 11.5 mph - N/A   Partly Cloudy
1:53 PM 90.0 °F 92.4 °F 66.0 °F 45% 30.00 in 10.0 mi ESE 9.2 mph - N/A   Clear
2:53 PM 89.1 °F 91.3 °F 66.0 °F 46% 29.99 in 10.0 mi ENE 11.5 mph - N/A   Mostly Cloudy
3:53 PM 90.0 °F 92.4 °F 66.0 °F 45% 29.99 in 10.0 mi East 10.4 mph - N/A   Partly Cloudy
4:53 PM 88.0 °F 90.7 °F 66.9 °F 49% 29.99 in 10.0 mi East 11.5 mph 21.9 mph N/A   Partly Cloudy
5:53 PM 87.1 °F 89.2 °F 66.0 °F 49% 29.98 in 10.0 mi SE 11.5 mph - N/A   Clear
6:53 PM 84.0 °F 86.5 °F 66.9 °F 56% 29.99 in 10.0 mi East 9.2 mph - N/A   Clear
7:53 PM 80.1 °F 82.3 °F 66.9 °F 64% 30.01 in 10.0 mi ESE 5.8 mph - N/A   Clear
8:53 PM 77.0 °F - 66.0 °F 69% 30.03 in 10.0 mi East 6.9 mph - N/A   Clear
9:53 PM 75.9 °F - 64.9 °F 69% 30.05 in 10.0 mi East 5.8 mph - N/A   Clear
10:53 PM 73.9 °F - 63.0 °F 68% 30.07 in 10.0 mi ESE 10.4 mph - N/A   Clear
11:53 PM 73.0 °F - 61.0 °F 66% 30.08 in 10.0 mi ESE 6.9 mph - N/A   Clear